| time (UTC) | temp F | wind direction | speed MPH | gust MPH | rain 1hr in | rain 24hr in | rain mn in | humidity % | barometer mb |
| 20260505004102 | 72 | 289 | 7.0 | 12.0 | 0.00 | 0.00 | 0.00 | 52 | 1010.3 |
| 20260505003530 | 72 | 250 | 5.0 | 9.0 | 0.00 | 0.00 | 0.00 | 52 | 1010.2 |
| 20260505003054 | 72 | 268 | 4.0 | 9.0 | 0.00 | 0.00 | 0.00 | 53 | 1010.2 |
| 20260505002601 | 72 | 261 | 5.0 | 9.0 | 0.00 | 0.00 | 0.00 | 53 | 1010.3 |
| 20260505002049 | 72 | 304 | 4.0 | 9.0 | 0.00 | 0.00 | 0.00 | 54 | 1010.3 |
| 20260505001528 | 71 | 304 | 4.0 | 10.0 | 0.00 | 0.00 | 0.00 | 56 | 1010.3 |
| 20260505001036 | 71 | 288 | 6.0 | 10.0 | 0.00 | 0.00 | 0.00 | 55 | 1010.3 |
| 20260505000544 | 71 | 278 | 6.0 | 9.0 | 0.00 | 0.00 | 0.00 | 57 | 1010.4 |
| 20260505000104 | 71 | 267 | 3.0 | 8.0 | 0.00 | 0.00 | 0.00 | 57 | 1010.4 |
| 20260504235524 | 71 | 326 | 5.0 | 8.0 | 0.00 | 0.00 | 0.00 | 55 | 1010.4 |
| 20260504235032 | 71 | 260 | 5.0 | 9.0 | 0.00 | 0.00 | 0.00 | 56 | 1010.4 |
| 20260504234540 | 71 | 313 | 6.0 | 10.0 | 0.00 | 0.00 | 0.00 | 55 | 1010.4 |
| 20260504234049 | 71 | 266 | 3.0 | 11.0 | 0.00 | 0.00 | 0.00 | 57 | 1010.4 |
| 20260504233527 | 71 | 291 | 4.0 | 11.0 | 0.00 | 0.00 | 0.00 | 57 | 1010.5 |
| 20260504233035 | 71 | 288 | 7.0 | 10.0 | 0.00 | 0.00 | 0.00 | 55 | 1010.4 |
| 20260504232544 | 71 | 302 | 5.0 | 12.0 | 0.00 | 0.00 | 0.00 | 57 | 1010.5 |
| 20260504232048 | 71 | 259 | 8.0 | 12.0 | 0.00 | 0.00 | 0.00 | 56 | 1010.5 |
| 20260504231527 | 72 | 304 | 7.0 | 11.0 | 0.00 | 0.00 | 0.00 | 56 | 1010.5 |
| 20260504231034 | 72 | 326 | 5.0 | 10.0 | 0.00 | 0.00 | 0.00 | 57 | 1010.5 |
| 20260504230710 | 72 | 263 | 6.0 | 10.0 | 0.00 | 0.00 | 0.00 | 58 | 1010.5 |
| 20260504230113 | 72 | 301 | 7.0 | 14.0 | 0.00 | 0.00 | 0.00 | 57 | 1010.5 |
| 20260504225543 | 72 | 307 | 6.0 | 14.0 | 0.00 | 0.00 | 0.00 | 56 | 1010.5 |
| 20260504225031 | 73 | 259 | 6.0 | 13.0 | 0.00 | 0.00 | 0.00 | 57 | 1010.4 |
| 20260504224531 | 73 | 286 | 5.0 | 12.0 | 0.00 | 0.00 | 0.00 | 55 | 1010.5 |
| 20260504224040 | 74 | 328 | 6.0 | 11.0 | 0.00 | 0.00 | 0.00 | 53 | 1010.5 |
| 20260504223549 | 75 | 239 | 2.0 | 8.0 | 0.00 | 0.00 | 0.00 | 54 | 1010.5 |
| 20260504223035 | 76 | 287 | 2.0 | 7.0 | 0.00 | 0.00 | 0.00 | 55 | 1010.6 |
| 20260504222544 | 76 | 314 | 4.0 | 8.0 | 0.00 | 0.00 | 0.00 | 49 | 1010.6 |
| 20260504222046 | 75 | 271 | 4.0 | 8.0 | 0.00 | 0.00 | 0.00 | 53 | 1010.6 |
| 20260504221543 | 75 | 270 | 3.0 | 8.0 | 0.00 | 0.00 | 0.00 | 52 | 1010.6 |
| 20260504221032 | 76 | 278 | 4.0 | 8.0 | 0.00 | 0.00 | 0.00 | 50 | 1010.6 |
| 20260504220540 | 77 | 288 | 3.0 | 7.0 | 0.00 | 0.00 | 0.00 | 50 | 1010.6 |
| 20260504220058 | 77 | 248 | 4.0 | 6.0 | 0.00 | 0.00 | 0.00 | 53 | 1010.7 |
| 20260504215540 | 77 | 269 | 4.0 | 5.0 | 0.00 | 0.00 | 0.00 | 54 | 1010.6 |
| 20260504215028 | 77 | 217 | 2.0 | 3.0 | 0.00 | 0.00 | 0.00 | 54 | 1010.7 |
| 20260504214536 | 77 | 86 | 1.0 | 4.0 | 0.00 | 0.00 | 0.00 | 57 | 1010.7 |
| 20260504214106 | 76 | 85 | 2.0 | 5.0 | 0.00 | 0.00 | 0.00 | 56 | 1010.7 |
| 20260504213524 | 76 | 235 | 0.0 | 6.0 | 0.00 | 0.00 | 0.00 | 59 | 1010.7 |
| 20260504213032 | 75 | 136 | 2.0 | 6.0 | 0.00 | 0.00 | 0.00 | 61 | 1010.8 |
| 20260504212537 | 75 | 337 | 1.0 | 5.0 | 0.00 | 0.00 | 0.00 | 57 | 1010.8 |
| 20260504212036 | 75 | 72 | 3.0 | 5.0 | 0.00 | 0.00 | 0.00 | 59 | 1010.9 |
| 20260504211525 | 75 | 281 | 1.0 | 4.0 | 0.00 | 0.00 | 0.00 | 60 | 1010.9 |
| 20260504211033 | 75 | 53 | 2.0 | 4.0 | 0.00 | 0.00 | 0.00 | 57 | 1010.9 |
| 20260504210533 | 75 | 58 | 2.0 | 3.0 | 0.00 | 0.00 | 0.00 | 55 | 1010.9 |
| 20260504210118 | 75 | 238 | 1.0 | 5.0 | 0.00 | 0.00 | 0.00 | 55 | 1010.9 |
| 20260504205534 | 75 | 222 | 2.0 | 4.0 | 0.00 | 0.00 | 0.00 | 58 | 1011.0 |
| 20260504205041 | 75 | 147 | 1.0 | 3.0 | 0.00 | 0.00 | 0.00 | 54 | 1011.0 |
| 20260504204530 | 74 | 102 | 2.0 | 3.0 | 0.00 | 0.00 | 0.00 | 55 | 1011.0 |
| 20260504204028 | 74 | 241 | 1.0 | 3.0 | 0.00 | 0.00 | 0.00 | 55 | 1011.0 |
| 20260504203536 | 73 | 200 | 1.0 | 6.0 | 0.00 | 0.00 | 0.00 | 59 | 1011.1 |
| 20260504203045 | 73 | 257 | 3.0 | 6.0 | 0.00 | 0.00 | 0.00 | 57 | 1011.0 |
| 20260504202532 | 74 | 285 | 2.0 | 5.0 | 0.00 | 0.00 | 0.00 | 56 | 1011.1 |
| 20260504202041 | 74 | 101 | 2.0 | 5.0 | 0.00 | 0.00 | 0.00 | 59 | 1011.1 |
| 20260504201540 | 73 | 102 | 1.0 | 4.0 | 0.00 | 0.00 | 0.00 | 61 | 1011.2 |
| 20260504201025 | 73 | 197 | 2.0 | 5.0 | 0.00 | 0.00 | 0.00 | 64 | 1011.2 |
| 20260504200534 | 73 | 84 | 1.0 | 5.0 | 0.00 | 0.00 | 0.00 | 65 | 1011.3 |
| 20260504200052 | 72 | 148 | 1.0 | 6.0 | 0.00 | 0.00 | 0.00 | 66 | 1011.2 |
| 20260504195532 | 72 | 166 | 2.0 | 6.0 | 0.00 | 0.00 | 0.00 | 62 | 1011.2 |
| 20260504195038 | 72 | 231 | 3.0 | 4.0 | 0.00 | 0.00 | 0.00 | 64 | 1011.2 |
| 20260504194527 | 71 | 145 | 1.0 | 5.0 | 0.00 | 0.00 | 0.00 | 64 | 1011.2 |
| 20260504194051 | 71 | 82 | 2.0 | 5.0 | 0.00 | 0.00 | 0.00 | 65 | 1011.2 |
| 20260504193529 | 71 | 91 | 1.0 | 6.0 | 0.00 | 0.00 | 0.00 | 65 | 1011.3 |
| 20260504193037 | 70 | 69 | 2.0 | 5.0 | 0.00 | 0.00 | 0.00 | 64 | 1011.4 |
| 20260504192546 | 70 | 32 | 0.0 | 7.0 | 0.00 | 0.00 | 0.00 | 66 | 1011.4 |
| 20260504192024 | 70 | 224 | 5.0 | 7.0 | 0.00 | 0.00 | 0.00 | 65 | 1011.3 |
| 20260504191532 | 70 | 274 | 3.0 | 4.0 | 0.00 | 0.00 | 0.00 | 66 | 1011.3 |
| 20260504191040 | 70 | 205 | 1.0 | 4.0 | 0.00 | 0.00 | 0.00 | 69 | 1011.2 |
| 20260504190539 | 70 | 148 | 1.0 | 3.0 | 0.00 | 0.00 | 0.00 | 68 | 1011.2 |
| 20260504190058 | 70 | 111 | 2.0 | 5.0 | 0.00 | 0.00 | 0.00 | 69 | 1011.3 |
| 20260504185529 | 70 | 97 | 2.0 | 5.0 | 0.00 | 0.00 | 0.00 | 66 | 1011.3 |
| 20260504185058 | 70 | 94 | 1.0 | 5.0 | 0.00 | 0.00 | 0.00 | 70 | 1011.3 |
| 20260504184545 | 69 | 148 | 2.0 | 4.0 | 0.00 | 0.00 | 0.00 | 68 | 1011.3 |
| 20260504184054 | 69 | 162 | 2.0 | 5.0 | 0.00 | 0.00 | 0.00 | 68 | 1011.4 |
| 20260504183527 | 68 | 141 | 1.0 | 6.0 | 0.00 | 0.00 | 0.00 | 72 | 1011.4 |
| 20260504183036 | 68 | 254 | 4.0 | 6.0 | 0.00 | 0.00 | 0.00 | 69 | 1011.4 |
| 20260504182545 | 68 | 244 | 3.0 | 5.0 | 0.00 | 0.00 | 0.00 | 69 | 1011.4 |
| 20260504182054 | 68 | 235 | 3.0 | 6.0 | 0.00 | 0.00 | 0.00 | 67 | 1011.4 |
| 20260504181600 | 68 | 253 | 2.0 | 6.0 | 0.00 | 0.00 | 0.00 | 66 | 1011.4 |
| 20260504181026 | 68 | 210 | 3.0 | 5.0 | 0.00 | 0.00 | 0.00 | 65 | 1011.6 |
| 20260504180553 | 68 | 230 | 2.0 | 5.0 | 0.00 | 0.00 | 0.00 | 64 | 1011.5 |
| 20260504180049 | 68 | 191 | 2.0 | 4.0 | 0.00 | 0.00 | 0.00 | 65 | 1011.6 |
| 20260504175540 | 68 | 250 | 2.0 | 4.0 | 0.00 | 0.00 | 0.00 | 66 | 1011.7 |
| 20260504175049 | 68 | 233 | 1.0 | 4.0 | 0.00 | 0.00 | 0.00 | 68 | 1011.6 |
| 20260504174528 | 68 | 96 | 3.0 | 4.0 | 0.00 | 0.00 | 0.00 | 66 | 1011.6 |
| 20260504174053 | 68 | 248 | 1.0 | 4.0 | 0.00 | 0.00 | 0.00 | 67 | 1011.6 |
| 20260504173540 | 68 | 136 | 1.0 | 4.0 | 0.00 | 0.00 | 0.00 | 68 | 1011.4 |
| 20260504173048 | 67 | 245 | 1.0 | 5.0 | 0.00 | 0.00 | 0.00 | 70 | 1011.4 |
| 20260504172528 | 67 | 246 | 3.0 | 5.0 | 0.00 | 0.00 | 0.00 | 66 | 1011.4 |
| 20260504172036 | 67 | 192 | 1.0 | 5.0 | 0.00 | 0.00 | 0.00 | 69 | 1011.4 |
| 20260504171525 | 66 | 134 | 1.0 | 5.0 | 0.00 | 0.00 | 0.00 | 68 | 1011.4 |
| 20260504171024 | 66 | 73 | 2.0 | 6.0 | 0.00 | 0.00 | 0.00 | 68 | 1011.4 |
| 20260504170531 | 66 | 149 | 3.0 | 6.0 | 0.00 | 0.00 | 0.00 | 68 | 1011.4 |
| 20260504151058 | 59 | 60 | 2.0 | 3.0 | 0.00 | 0.00 | 0.00 | 84 | 1011.2 |
| 20260504150537 | 59 | 58 | 2.0 | 3.0 | 0.00 | 0.00 | 0.00 | 84 | 1011.3 |
| 20260504141032 | 55 | 48 | 0.0 | 0.0 | 0.00 | 0.00 | 0.00 | 90 | 1010.7 |
| 20260504140540 | 55 | 60 | 0.0 | 0.0 | 0.00 | 0.00 | 0.00 | 89 | 1010.7 |
| 20260504140133 | 56 | 60 | 0.0 | 0.0 | 0.00 | 0.00 | 0.00 | 91 | 1010.6 |
| 20260504130557 | 51 | 61 | 0.0 | 1.0 | 0.00 | 0.00 | 0.00 | 92 | 1010.1 |
| 20260504120105 | 52 | 78 | 0.0 | 0.0 | 0.00 | 0.00 | 0.00 | 88 | 1010.0 |
| 20260504110532 | 53 | 78 | 0.0 | 0.0 | 0.00 | 0.00 | 0.00 | 83 | 1010.2 |
| 20260504100534 | 55 | 78 | 0.0 | 0.0 | 0.00 | 0.00 | 0.00 | 79 | 1010.3 |
| 20260504081529 | 55 | 84 | 0.0 | 0.0 | 0.00 | 0.00 | 0.00 | 81 | 1010.4 |
| 20260504081028 | 56 | 84 | 0.0 | 0.0 | 0.00 | 0.00 | 0.00 | 80 | 1010.3 |
| 20260504080606 | 56 | 84 | 0.0 | 0.0 | 0.00 | 0.00 | 0.00 | 79 | 1010.3 |
| 20260504080104 | 57 | 84 | 0.0 | 0.0 | 0.00 | 0.00 | 0.00 | 78 | 1010.3 |
| 20260504050527 | 66 | 237 | 0.0 | 3.0 | 0.00 | 0.00 | 0.00 | 56 | 1010.3 |
| 20260504045539 | 67 | 293 | 1.0 | 5.0 | 0.00 | 0.00 | 0.00 | 52 | 1010.4 |
| 20260504045047 | 67 | 300 | 1.0 | 5.0 | 0.00 | 0.00 | 0.00 | 53 | 1010.3 |
| 20260504044526 | 67 | 296 | 2.0 | 4.0 | 0.00 | 0.00 | 0.00 | 54 | 1010.3 |
| 20260504044035 | 66 | 305 | 2.0 | 4.0 | 0.00 | 0.00 | 0.00 | 54 | 1010.3 |
| 20260504043544 | 66 | 328 | 1.0 | 4.0 | 0.00 | 0.00 | 0.00 | 56 | 1010.3 |
| 20260504043043 | 66 | 288 | 2.0 | 3.0 | 0.00 | 0.00 | 0.00 | 56 | 1010.3 |
| 20260504042531 | 66 | 263 | 1.0 | 2.0 | 0.00 | 0.00 | 0.00 | 57 | 1010.3 |
| 20260504042039 | 66 | 271 | 1.0 | 3.0 | 0.00 | 0.00 | 0.00 | 56 | 1010.3 |
| 20260504041548 | 66 | 283 | 2.0 | 3.0 | 0.00 | 0.00 | 0.00 | 57 | 1010.3 |
| 20260504041029 | 67 | 243 | 1.0 | 4.0 | 0.00 | 0.00 | 0.00 | 57 | 1010.2 |
| 20260504040537 | 67 | 307 | 2.0 | 4.0 | 0.00 | 0.00 | 0.00 | 56 | 1010.3 |
| 20260504040054 | 67 | 316 | 1.0 | 4.0 | 0.00 | 0.00 | 0.00 | 56 | 1010.3 |
| 20260504035539 | 67 | 289 | 2.0 | 5.0 | 0.00 | 0.00 | 0.00 | 56 | 1010.2 |
| 20260504035049 | 67 | 282 | 1.0 | 4.0 | 0.00 | 0.00 | 0.00 | 57 | 1010.2 |
| 20260504034527 | 67 | 271 | 3.0 | 4.0 | 0.00 | 0.00 | 0.00 | 57 | 1010.2 |
| 20260504034035 | 68 | 316 | 1.0 | 3.0 | 0.00 | 0.00 | 0.00 | 57 | 1010.1 |
| 20260504033604 | 68 | 295 | 1.0 | 3.0 | 0.00 | 0.00 | 0.00 | 57 | 1010.0 |
| 20260504033023 | 68 | 261 | 0.0 | 3.0 | 0.00 | 0.00 | 0.00 | 57 | 1010.0 |
| 20260504032531 | 69 | 262 | 0.0 | 5.0 | 0.00 | 0.00 | 0.00 | 56 | 1010.0 |
| 20260504032040 | 69 | 277 | 2.0 | 5.0 | 0.00 | 0.00 | 0.00 | 55 | 1010.0 |
| 20260504031547 | 70 | 332 | 3.0 | 5.0 | 0.00 | 0.00 | 0.00 | 54 | 1010.1 |
| 20260504031026 | 71 | 290 | 1.0 | 5.0 | 0.00 | 0.00 | 0.00 | 53 | 1010.0 |
| 20260504030534 | 71 | 288 | 1.0 | 3.0 | 0.00 | 0.00 | 0.00 | 52 | 1010.1 |
| 20260504030055 | 72 | 291 | 1.0 | 3.0 | 0.00 | 0.00 | 0.00 | 50 | 1010.1 |
| 20260504025546 | 72 | 304 | 1.0 | 2.0 | 0.00 | 0.00 | 0.00 | 50 | 1010.1 |
| 20260504025026 | 73 | 252 | 1.0 | 2.0 | 0.00 | 0.00 | 0.00 | 49 | 1010.1 |
| 20260504024534 | 73 | 17 | 1.0 | 2.0 | 0.00 | 0.00 | 0.00 | 49 | 1010.1 |
| 20260504024042 | 73 | 279 | 2.0 | 3.0 | 0.00 | 0.00 | 0.00 | 49 | 1010.1 |
| 20260504023607 | 73 | 283 | 1.0 | 3.0 | 0.00 | 0.00 | 0.00 | 49 | 1010.2 |
| 20260504023025 | 74 | 271 | 1.0 | 3.0 | 0.00 | 0.00 | 0.00 | 48 | 1010.2 |
| 20260504022533 | 74 | 288 | 1.0 | 3.0 | 0.00 | 0.00 | 0.00 | 50 | 1010.3 |
| 20260504022042 | 74 | 292 | 1.0 | 2.0 | 0.00 | 0.00 | 0.00 | 47 | 1010.3 |
| 20260504021540 | 74 | 290 | 1.0 | 3.0 | 0.00 | 0.00 | 0.00 | 49 | 1010.5 |
| 20260504021029 | 74 | 11 | 1.0 | 5.0 | 0.00 | 0.00 | 0.00 | 47 | 1010.5 |
| 20260504020538 | 74 | 321 | 1.0 | 5.0 | 0.00 | 0.00 | 0.00 | 48 | 1010.5 |
| 20260504020118 | 74 | 295 | 1.0 | 5.0 | 0.00 | 0.00 | 0.00 | 48 | 1010.6 |
| 20260504015548 | 74 | 288 | 2.0 | 5.0 | 0.00 | 0.00 | 0.00 | 49 | 1010.5 |
| 20260504015027 | 74 | 272 | 2.0 | 5.0 | 0.00 | 0.00 | 0.00 | 48 | 1010.6 |
| 20260504014536 | 74 | 257 | 3.0 | 5.0 | 0.00 | 0.00 | 0.00 | 49 | 1010.5 |
| 20260504014045 | 74 | 284 | 3.0 | 5.0 | 0.00 | 0.00 | 0.00 | 50 | 1010.6 |
| 20260504013524 | 74 | 294 | 3.0 | 7.0 | 0.00 | 0.00 | 0.00 | 49 | 1010.6 |
| 20260504013033 | 74 | 288 | 4.0 | 7.0 | 0.00 | 0.00 | 0.00 | 50 | 1010.7 |
| 20260504012541 | 74 | 271 | 4.0 | 8.0 | 0.00 | 0.00 | 0.00 | 49 | 1010.7 |
| 20260504012036 | 74 | 224 | 3.0 | 10.0 | 0.00 | 0.00 | 0.00 | 49 | 1010.8 |
| 20260504011545 | 74 | 274 | 3.0 | 7.0 | 0.00 | 0.00 | 0.00 | 48 | 1010.7 |
| 20260504011030 | 74 | 297 | 3.0 | 8.0 | 0.00 | 0.00 | 0.00 | 50 | 1010.6 |
| 20260504010559 | 74 | 278 | 5.0 | 8.0 | 0.00 | 0.00 | 0.00 | 50 | 1010.7 |
| 20260504010054 | 74 | 267 | 4.0 | 7.0 | 0.00 | 0.00 | 0.00 | 48 | 1010.8 |
| 20260504005544 | 75 | 274 | 4.0 | 8.0 | 0.00 | 0.00 | 0.00 | 49 | 1010.8 |
| 20260504005043 | 75 | 290 | 6.0 | 8.0 | 0.00 | 0.00 | 0.00 | 48 | 1010.9 |
| 20260504004532 | 75 | 303 | 3.0 | 6.0 | 0.00 | 0.00 | 0.00 | 49 | 1011.0 |